Regional Weather Roundup
Issued by NWS

Home | Current Version | Previous Version | Text Only | Print | Product List | Glossary On
Versions: 1 2 3 4 5 6 7 8 9 10 11 12 13 14 15 16 17 18 19 20 21 22 23 24 25 26 27 28 29 30 31 32 33 34 35 36 37 38 39 40 41 42 43 44 45 46 47 48 49 50
204
ASUS43 KMPX 250901
RWRMN
WEATHER ROUNDUP FOR MINNESOTA
NATIONAL WEATHER SERVICE TWIN CITIES/CHANHASSEN MN
300 AM CST SAT FEB 25 2017


NOTE: "FAIR" INDICATES FEW OR NO CLOUDS BELOW 12,000 FEET WITH NO
SIGNIFICANT WEATHER AND/OR OBSTRUCTIONS TO VISIBILITY. N/A MEANS
CURRENT SKY AND/OR WEATHER CONDITIONS ARE NOT AVAILABLE.

MNZ060>063-068>070-251000-
   Twin Cities Metro

CITY           SKY/WX    TMP DP  RH WIND       PRES   REMARKS
TWIN CITIES    CLEAR     17   3  54 N14       29.90S WCI   3
ST PAUL        CLEAR     17   5  59 NW18      29.91S WCI   1
CRYSTAL        CLEAR     17   3  54 NW14G25   29.90S WCI   3
BLAINE         CLEAR     18   7  62 NW16G23   29.89S WCI   3
LAKEVILLE      CLEAR     16   7  67 NW18G26   29.89S WCI  -1
EDEN PRAIRIE   PTCLDY    18   7  62 N12G18    29.90R WCI   5
SOUTH ST PAUL  CLEAR     18   4  56 N21G28    29.89S WCI   1
LAKE ELMO      FAIR      18   7  62 NW9G18    29.88S WCI   6
$$
MNZ001>005-007-008-013>017-022>024-027-028-251000-
   Northwest Minnesota

CITY           SKY/WX    TMP DP  RH WIND       PRES   REMARKS
BEMIDJI        CLEAR      6   2  82 NW9       29.95S WCI  -8
HALLOCK        MOCLDY     9   7  92 S6        30.00F WCI  -1
ROSEAU         CLEAR      7   1  78 W3        29.98F
WARROAD        CLEAR      3   0  85 W7        29.97F WCI  -9
THIEF RVR FALL CLEAR      9   6  88 CALM      30.01F
CROOKSTON      MOCLDY    16  10  79 W5        30.04S WCI   9
FOSSTON        CLEAR      9   5  85 NW6       29.99F WCI  -1
DETROIT LAKES  CLEAR     14   9  79 NW9       30.00S WCI   2
MOORHEAD       CLEAR     16  12  86 NW3       30.05F
PARK RAPIDS    CLEAR      9  -1  64 NW8       29.94F WCI  -3
MAHNOMEN       FAIR      11   7  81 NW5       29.99F WCI   3
$$
MNZ006-009>011-018-025>026-251000-
   North Central Minnesota

CITY           SKY/WX    TMP DP  RH WIND       PRES   REMARKS
BAUDETTE       CLEAR      3  -2  79 W6        29.94F WCI  -8
FLAG ISLAND    CLEAR      3   0  85 W9        29.95F WCI -11
INTL FALLS     CLEAR      4  -1  80 NW6       29.90F WCI  -7
WASKISH        CLEAR      7   1  78 NW7       29.94F WCI  -5
BIG FORK       CLEAR      7   1  78 NW3       29.90F
LONGVILLE      CLEAR      7   1  78 NW7       29.92F WCI  -5
GRAND RAPIDS   CLEAR      6   2  83 NW16      29.90F WCI -12
CRANE LAKE     CLOUDY     5   1  85 NW5       29.88F WCI  -4
ORR            CLEAR      3   0  85 NW9       29.84F WCI -11
COOK           CLEAR      5   1  85 NW6       29.86F WCI  -6
WALKER         FAIR       7   0  74 NW8       29.94F WCI  -6
$$
MNZ012-019>021-037-251000-
   Northeast Minnesota

CITY           SKY/WX    TMP DP  RH WIND       PRES   REMARKS
DULUTH         FLURRIES  10   5  80 NW13G22   29.78S WCI  -5
ELY            CLOUDY     7   1  78 NW7G22    29.79F WCI  -5
HIBBING        CLEAR      6   1  80 NW16      29.84F WCI -12
EVELETH        LGT SNOW   9   2  72 NW12G17   29.83F WCI  -5
DULUTH HARBOR  CLEAR     16   5  62 NW18G29   29.85F WCI  -1
TWO HARBORS    CLOUDY    12   3  67 NW7G17    29.77S WCI   2
SILVER BAY     CLOUDY    10   3  72 NW10G21   29.73F WCI  -3
GRAND MARAIS     N/A     14   4  64 N20G37    29.69F WCI  -3
G MARAIS ARPRT FLURRIES   7   0  72 NW8G21    29.65S WCI  -6
$$
MNZ029>031-032-039>041-046>048-054>057-064-251000-
   West Central Minnesota

CITY           SKY/WX    TMP DP  RH WIND       PRES   REMARKS
FERGUS FALLS   CLEAR     14   9  79 NW10      30.07S WCI   1
WHEATON        CLEAR     16  12  86 W7        30.06F WCI   6
MORRIS         CLEAR     16  10  79 NW14      30.01S WCI   1
ALEXANDRIA     CLEAR     13   5  70 NW12      29.97S WCI  -1
ELBOW LAKE     FAIR      15   9  76 W14       30.01S WCI   0
WADENA         CLEAR     10   5  79 NW10      29.95F WCI  -3
GLENWOOD       CLEAR     14   7  73 NW15G22   29.97S WCI  -1
APPLETON       CLEAR     18  12  79 NW12      30.03F WCI   5
BENSON         CLEAR     18   7  62 N12       30.02F WCI   5
ORTONVILLE     CLEAR     16  12  86 CALM      30.04F
MADISON        CLEAR     19  16  86 NW9       30.05F WCI   9
WILLMAR        FAIR      18  10  73 NW15      29.99S WCI   3
$$
MNZ033>034-036-042>043-049>051-058-059-251000-
   Central Minnesota

CITY           SKY/WX    TMP DP  RH WIND       PRES   REMARKS
ST CLOUD       CLEAR     14   6  70 N16G22    29.93F WCI  -2
SAUK CENTRE    FAIR      13   5  69 NW15      29.96S WCI  -2
PAYNESVILLE    CLEAR     15   7  72 NW12      29.96F WCI   2
AITKIN         CLEAR     12   3  67 NW12G17   29.89F WCI  -2
PINE RIVER     CLEAR      9   3  78 NW8       29.96F WCI  -4
BRAINERD       CLEAR     11   3  70 NW10      29.93F WCI  -3
STAPLES        CLEAR     10   3  72 NW13      29.95S WCI  -5
LONG PRAIRIE   FAIR      14   5  67 W10       29.95S WCI   1
LITTLE FALLS   CLEAR     14   3  62 NW7       29.95F WCI   4
LITCHFIELD     CLEAR     18   9  68 NW13      29.95S WCI   4
BUFFALO        CLEAR     16   7  68 NW13      29.94S WCI   2
MAPLE LAKE     CLEAR     17   9  72 NW15G21   29.94S WCI   2
HUTCHINSON     CLEAR     18  10  71 NW16G23   29.95S WCI   3
$$
MNZ037-044-045-052-053-251000-
   East Central Minnesota

CITY           SKY/WX    TMP DP  RH WIND       PRES   REMARKS
PRINCETON      CLEAR     16   9  73 NW9       29.91S WCI   4
MORA           CLEAR     14   5  67 NW17G25   29.90S WCI  -3
CAMBRIDGE      CLEAR     16   5  62 NW15      29.88F WCI   1
RUSH CITY      CLEAR     14   3  62 NW15G21   29.88F WCI  -1
MOOSE LAKE     CLEAR     12   3  67 NW12G18   29.84F WCI  -2
HINCKLEY       FAIR      14   5  67 NW18G25   29.86S WCI  -3
CLOQUET        CLEAR      9   1  72 NW15      29.82S WCI  -8
MCGREGOR       CLEAR     12   5  73 NW12G20   29.89S WCI  -2
$$
MNZ071>073-080-081-089-090-097-098-251000-
   Southwest Minnesota

CITY           SKY/WX    TMP DP  RH WIND       PRES   REMARKS
MONTEVIDEO     CLEAR     16   9  73 N12       30.04S WCI   3
GRANITE FALLS  CLEAR     19  10  68 NW16G22   30.03S WCI   4
CANBY          CLEAR     18  16  91 W9        30.05F WCI   7
MARSHALL       CLEAR     17  12  80 NW17      30.02F WCI   1
REDWOOD FALLS  CLEAR     17   6  62 NW13      29.99F WCI   4
OLIVIA         CLEAR     18  10  73 NW15G22   29.98S WCI   3
PIPESTONE      CLEAR     18  10  73 NW10      30.01S WCI   6
WINDOM         CLEAR     16   9  73 NW18G24   29.97S WCI  -1
WORTHINGTON    CLEAR     15   9  76 NW17      30.00R WCI  -1
JACKSON        CLEAR     14   9  79 NW21G26   29.97R WCI  -4
TRACY          CLEAR     18  11  75 NW18      30.01S WCI   2
SLAYTON        CLEAR     16  11  81 NW17G25   30.00R WCI   0
$$
MNZ065>067-074>077-082>085-091>093-251000-
   South Central Minnesota

CITY           SKY/WX    TMP DP  RH WIND       PRES   REMARKS
MANKATO          N/A     17   8  67 NW14      29.94R WCI   3
NEW ULM        CLEAR     16   9  73 NW21      29.96R WCI  -2
ST JAMES       CLEAR     16  10  79 NW18G25   29.97S WCI  -1
FAIRMONT       CLEAR     15  10  80 NW18      29.96R WCI  -2
GLENCOE        PTCLDY    19  12  75 NW12      29.93S WCI   6
FARIBAULT      CLOUDY    16   7  67 NW8       29.90R WCI   5
OWATONNA       PTCLDY    12   3  67 NW12      29.88S WCI  -2
WASECA         MOCLDY    18  10  73 NW15      29.92R WCI   3
ALBERT LEA     CLEAR     16   9  73 NW13G18   29.88S WCI   2
$$
MNZ078>079-086>088-094>096-251000-
   Southeast Minnesota

CITY           SKY/WX    TMP DP  RH WIND       PRES   REMARKS
ROCHESTER      CLOUDY    15   8  73 NW18      29.82R WCI  -2
RED WING       CLEAR     18   3  53 NW13G25   29.86S WCI   4
STANTON        CLEAR     17   6  62 NW14      29.87S WCI   3
AUSTIN         CLEAR     14   7  73 NW12      29.86R WCI   0
PRESTON        LGT SNOW  16  11  79 NW7       29.81R WCI   6
$$
ABBREVIATIONS USED IN REMARKS
   TC - TEMPERATURES IN CELSIUS
  WCI - WIND CHILL INDEX
   HX - HEAT INDEX
  VSB - VISIBILITY
$$




USA.gov is the U.S. government's official web portal to all federal, state and local government web resources and services.